TimeCDT,TemperatureF,Dew PointF,Humidity,Sea Level PressureIn,VisibilityMPH,Wind Direction,Wind SpeedMPH,Gust SpeedMPH,PrecipitationIn,Events,Conditions,WindDirDegrees,DateUTC
12:55 AM,54.0,43.0,66,29.89,10.0,East,10.4,-,N/A,,Partly Cloudy,100,2012-10-04 05:55:00
1:55 AM,54.0,41.0,62,29.87,10.0,ESE,9.2,-,N/A,,Clear,110,2012-10-04 06:55:00
2:55 AM,54.0,43.0,66,29.83,10.0,East,11.5,-,N/A,,Partly Cloudy,100,2012-10-04 07:55:00
3:55 AM,53.1,44.1,71,29.80,10.0,East,10.4,-,N/A,,Clear,100,2012-10-04 08:55:00
4:55 AM,55.0,45.0,69,29.76,10.0,ESE,13.8,-,N/A,,Clear,120,2012-10-04 09:55:00
5:55 AM,55.0,46.0,72,29.71,10.0,ESE,15.0,23.0,N/A,,Scattered Clouds,120,2012-10-04 10:55:00
6:55 AM,54.0,46.0,75,29.70,10.0,ESE,11.5,-,N/A,,Mostly Cloudy,110,2012-10-04 11:55:00
7:55 AM,53.1,46.0,77,29.69,10.0,SE,13.8,24.2,N/A,,Scattered Clouds,130,2012-10-04 12:55:00
8:55 AM,48.9,41.0,74,29.71,10.0,SSW,23.0,32.2,N/A,,Mostly Cloudy,210,2012-10-04 13:55:00
9:55 AM,48.9,39.9,71,29.72,10.0,SW,19.6,29.9,N/A,,Overcast,220,2012-10-04 14:55:00
10:46 AM,46.4,39.2,76,29.70,10.0,SSW,23.0,35.7,N/A,,Overcast,210,2012-10-04 15:46:00
10:55 AM,46.9,39.9,77,29.73,10.0,SSW,17.3,29.9,N/A,,Overcast,200,2012-10-04 15:55:00
11:55 AM,44.1,37.0,76,29.76,10.0,SW,27.6,42.6,N/A,,Overcast,220,2012-10-04 16:55:00
12:45 PM,42.8,33.8,70,29.75,10.0,WSW,25.3,33.4,0.00,,Overcast,240,2012-10-04 17:45:00
12:55 PM,43.0,34.0,71,29.79,10.0,WSW,27.6,36.8,0.00,,Overcast,240,2012-10-04 17:55:00
1:55 PM,44.1,32.0,63,29.81,10.0,WSW,23.0,32.2,N/A,,Overcast,240,2012-10-04 18:55:00
2:55 PM,44.1,30.0,58,29.83,10.0,WSW,24.2,44.9,0.00,,Overcast,250,2012-10-04 19:55:00
3:25 PM,42.8,28.4,57,29.81,10.0,WSW,28.8,42.6,N/A,,Overcast,250,2012-10-04 20:25:00
3:55 PM,44.1,28.9,55,29.84,10.0,West,32.2,46.0,N/A,,Overcast,260,2012-10-04 20:55:00
4:55 PM,43.0,28.9,58,29.86,10.0,West,27.6,39.1,N/A,,Mostly Cloudy,260,2012-10-04 21:55:00
5:55 PM,42.1,28.9,60,29.88,10.0,West,28.8,39.1,N/A,,Overcast,270,2012-10-04 22:55:00
6:55 PM,39.0,28.0,65,29.90,10.0,West,28.8,38.0,N/A,,Overcast,260,2012-10-04 23:55:00
7:40 PM,37.4,32.0,81,29.89,9.0,West,24.2,32.2,0.00,Rain,Light Rain,270,2012-10-05 00:40:00
7:55 PM,37.0,32.0,82,29.93,7.0,West,20.7,27.6,0.00,Rain,Light Rain,260,2012-10-05 00:55:00
8:55 PM,35.1,30.9,85,29.93,7.0,West,20.7,27.6,0.00,Snow,Light Snow,270,2012-10-05 01:55:00
9:23 PM,35.6,28.4,75,29.89,9.0,West,24.2,35.7,0.00,Snow,Light Snow,270,2012-10-05 02:23:00
9:55 PM,35.1,28.9,78,29.94,10.0,West,27.6,44.9,0.00,Snow,Light Snow,260,2012-10-05 02:55:00
10:06 PM,35.6,28.4,75,29.89,9.0,West,26.5,39.1,0.00,Snow,Light Snow,270,2012-10-05 03:06:00
10:55 PM,36.0,28.9,76,29.93,9.0,West,29.9,41.4,0.00,Snow,Light Snow,270,2012-10-05 03:55:00
11:55 PM,36.0,28.9,76,29.94,9.0,West,25.3,38.0,0.00,Snow,Light Snow,270,2012-10-05 04:55:00